This demonstration page uses our WeatherBlox Daily Observations layout. Learn more.

36.17497, -115.13722

Hourly Observations for June 2, 2016

Temp ( °F °C ) Dew Point ( °F °C ) Humidity (%) Winds ( mph kmh ) Pressure ( in mb ) Visibility ( mi km ) Precip ( " mm )
12:53 am 00:53 Clear 81 27.2 31 -0.6 16 16 NNW 6 9 29.8 1009 10 16.0934 0 0
1:53 am 01:53 Clear 79 26.1 29 -1.7 16 16 NW 6 9 29.81 1009 10 16.0934 0 0
2:53 am 02:53 Clear 77 25 27 -2.8 16 16 NW 7 11 29.81 1010 10 16.0934 0 0
3:53 am 03:53 Clear 75 23.9 30 -1.1 19 19 N 5 7 29.84 1010 10 16.0934 0 0
4:53 am 04:53 Clear 72 22.2 30 -1.1 21 21 N 7 11 29.86 1011 10 16.0934 0 0
5:53 am 05:53 Sunny 74 23.3 27 -2.8 17 17 N 8 13 29.88 1012 10 16.0934 0 0
6:53 am 06:53 Sunny 80 26.7 29 -1.7 15 15 N 6 9 29.89 1012 10 16.0934 0 0
7:53 am 07:53 Sunny 85 29.4 32 0 15 15 NNE 5 7 29.91 1013 10 16.0934 0 0
8:53 am 08:53 Sunny 88 31.1 31 -0.6 13 13 NE 5 7 29.93 1014 10 16.0934 0 0
9:53 am 09:53 Sunny 90 32.2 34 1.1 14 14 Calm 29.93 1014 10 16.0934 0 0
10:01 am 10:01 Sunny 90 32.2 34 1.1 14 14 VRB 3 6 29.83 1010 10 16.0934 0 0
10:53 am 10:53 Sunny 93 33.9 33 0.6 12 12 E 7 11 29.93 1014 10 16.0934 0 0
11:53 am 11:53 Sunny 96 35.6 29 -1.7 9 9 ESE 5 7 29.92 1013 10 16.0934 0 0
12:53 pm 12:53 Sunny 101 38.3 30 -1.1 8 8 SE 12 19 29.9 1013 10 16.0934 0 0
1:53 pm 13:53 Sunny 102 38.9 24 -4.4 6 6 VRB 5 7 29.88 1012 10 16.0934 0 0
2:53 pm 14:53 Sunny 103 39.4 26 -3.3 6 6 SSE 12 19 29.85 1011 10 16.0934 0 0
3:53 pm 15:53 Sunny 104 40 27 -2.8 7 7 S 13 20 29.82 1010 10 16.0934 0 0
4:53 pm 16:53 Sunny 104 40 28 -2.2 7 7 undefined N/A 29.81 1010 10 16.0934 0 0
5:53 pm 17:53 Sunny 104 40 26 -3.3 6 6 WSW 16 26 29.8 1009 10 16.0934 0 0
6:53 pm 18:53 Sunny 103 39.4 26 -3.3 6 6 WSW 10 17 29.81 1009 10 16.0934 0 0
7:53 pm 19:53 Sunny 100 37.8 26 -3.3 7 7 W 10 17 29.82 1010 10 16.0934 0 0
8:53 pm 20:53 Clear 97 36.1 26 -3.3 8 8 W 7 11 29.84 1011 10 16.0934 0 0
9:53 pm 21:53 Clear 94 34.4 26 -3.3 9 9 Calm 29.87 1011 10 16.0934 0 0
10:53 pm 22:53 Clear 91 32.8 29 -1.7 11 11 WNW 5 7 29.87 1011 10 16.0934 0 0
11:53 pm 23:53 Clear 87 30.6 27 -2.8 11 11 NE 8 13 29.87 1012 10 16.0934 0 0

Powered by AerisWeather